iso_date,Year,Hour,Min,DOY,POS_DOY,Lat,Lon,BP,Ts,Ta,has_bp,has_ts,has_ta,BuoyID,Buoy_Type,Buoy_Owner,Logistics,Hemisphere
2022-09-25T15:29:57Z,2022,15,30,268.6458,268.6458,73.03166,-150.82904,-999.0,-999.0,-999.0,no,yes,no,300534062894730,SASSIE,PSC,SASSIE,North
2022-09-25T15:40:01Z,2022,15,40,268.6528,268.6528,73.03054,-150.82473,-999.0,-999.0,-999.0,no,yes,no,300534062894730,SASSIE,PSC,SASSIE,North
2022-09-25T15:49:58Z,2022,15,50,268.6597,268.6597,73.02544,-150.8133,-999.0,-999.0,-999.0,no,yes,no,300534062894730,SASSIE,PSC,SASSIE,North
2022-09-25T16:00:02Z,2022,16,0,268.6667,268.6667,73.02102,-150.76647,-999.0,-999.0,-999.0,no,yes,no,300534062894730,SASSIE,PSC,SASSIE,North
2022-09-25T16:09:59Z,2022,16,10,268.6736,268.6736,73.01462,-150.69858,-999.0,-999.0,-999.0,no,yes,no,300534062894730,SASSIE,PSC,SASSIE,North
2022-09-25T16:20:03Z,2022,16,20,268.6806,268.6806,73.0086,-150.62866,-999.0,-999.0,-999.0,no,yes,no,300534062894730,SASSIE,PSC,SASSIE,North
2022-09-25T16:30:00Z,2022,16,30,268.6875,268.6875,73.00343,-150.55786,-999.0,-999.0,-999.0,no,yes,no,300534062894730,SASSIE,PSC,SASSIE,North
2022-09-25T16:39:56Z,2022,16,40,268.6944,268.6944,72.99952,-150.50366,-999.0,-999.0,-999.0,no,yes,no,300534062894730,SASSIE,PSC,SASSIE,North
2022-09-25T16:50:00Z,2022,16,50,268.7014,268.7014,72.9986,-150.50259,-999.0,-999.0,-999.0,no,yes,no,300534062894730,SASSIE,PSC,SASSIE,North
2022-09-25T16:59:57Z,2022,17,0,268.7083,268.7083,73.00053,-150.50008,-999.0,-999.0,-999.0,no,yes,no,300534062894730,SASSIE,PSC,SASSIE,North
2022-09-25T17:10:01Z,2022,17,10,268.7153,268.7153,73.00285,-150.5006,-999.0,-999.0,-999.0,no,yes,no,300534062894730,SASSIE,PSC,SASSIE,North
2022-09-25T17:19:58Z,2022,17,20,268.7222,268.7222,73.00321,-150.50118,-999.0,-999.0,-999.0,no,yes,no,300534062894730,SASSIE,PSC,SASSIE,North
2022-09-25T17:30:02Z,2022,17,30,268.7292,268.7292,73.00366,-150.5016,-999.0,-999.0,-999.0,no,yes,no,300534062894730,SASSIE,PSC,SASSIE,North
2022-09-25T17:39:59Z,2022,17,40,268.7361,268.7361,73.00412,-150.50203,-999.0,-999.0,-999.0,no,yes,no,300534062894730,SASSIE,PSC,SASSIE,North
2022-09-25T17:50:03Z,2022,17,50,268.7431,268.7431,73.00467,-150.50234,-999.0,-999.0,-999.0,no,yes,no,300534062894730,SASSIE,PSC,SASSIE,North
2022-09-25T18:01:00Z,2022,18,1,268.7507,268.7507,73.00524,-150.50258,-999.0,-999.0,-999.0,no,yes,no,300534062894730,SASSIE,PSC,SASSIE,North
2022-09-25T18:09:56Z,2022,18,10,268.7569,268.7569,73.00573,-150.50277,-999.0,-999.0,-999.0,no,yes,no,300534062894730,SASSIE,PSC,SASSIE,North
2022-09-25T18:20:00Z,2022,18,20,268.7639,268.7639,73.00628,-150.50282,-999.0,-999.0,-999.0,no,yes,no,300534062894730,SASSIE,PSC,SASSIE,North
2022-09-25T18:29:57Z,2022,18,30,268.7708,268.7708,73.00684,-150.5029,-999.0,-999.0,-999.0,no,yes,no,300534062894730,SASSIE,PSC,SASSIE,North
2022-09-25T18:40:01Z,2022,18,40,268.7778,268.7778,73.00744,-150.50294,-999.0,-999.0,-999.0,no,yes,no,300534062894730,SASSIE,PSC,SASSIE,North
2022-09-25T18:49:58Z,2022,18,50,268.7847,268.7847,73.00809,-150.50284,-999.0,-999.0,-999.0,no,yes,no,300534062894730,SASSIE,PSC,SASSIE,North
2022-09-25T19:00:02Z,2022,19,0,268.7917,268.7917,73.00879,-150.50248,-999.0,-999.0,-999.0,no,yes,no,300534062894730,SASSIE,PSC,SASSIE,North
2022-09-25T19:09:59Z,2022,19,10,268.7986,268.7986,73.00949,-150.50217,-999.0,-999.0,-999.0,no,yes,no,300534062894730,SASSIE,PSC,SASSIE,North
2022-09-25T19:20:03Z,2022,19,20,268.8056,268.8056,73.01018,-150.5017,-999.0,-999.0,-999.0,no,yes,no,300534062894730,SASSIE,PSC,SASSIE,North
2022-09-25T19:30:00Z,2022,19,30,268.8125,268.8125,73.01095,-150.50095,-999.0,-999.0,-999.0,no,yes,no,300534062894730,SASSIE,PSC,SASSIE,North
2022-09-25T19:39:56Z,2022,19,40,268.8194,268.8194,73.01172,-150.5,-999.0,-999.0,-999.0,no,yes,no,300534062894730,SASSIE,PSC,SASSIE,North
2022-09-25T19:50:00Z,2022,19,50,268.8264,268.8264,73.01257,-150.49848,-999.0,-999.0,-999.0,no,yes,no,300534062894730,SASSIE,PSC,SASSIE,North
2022-09-25T19:59:57Z,2022,20,0,268.8333,268.8333,73.01341,-150.49678,-999.0,-999.0,-999.0,no,yes,no,300534062894730,SASSIE,PSC,SASSIE,North
2022-09-25T20:10:01Z,2022,20,10,268.8403,268.8403,73.0142,-150.4952,-999.0,-999.0,-999.0,no,yes,no,300534062894730,SASSIE,PSC,SASSIE,North
2022-09-25T20:19:58Z,2022,20,20,268.8472,268.8472,73.01506,-150.49346,-999.0,-999.0,-999.0,no,yes,no,300534062894730,SASSIE,PSC,SASSIE,North
2022-09-25T20:30:02Z,2022,20,30,268.8542,268.8542,73.01592,-150.49111,-999.0,-999.0,-999.0,no,yes,no,300534062894730,SASSIE,PSC,SASSIE,North
2022-09-25T20:39:59Z,2022,20,40,268.8611,268.8611,73.01678,-150.48844,-999.0,-999.0,-999.0,no,yes,no,300534062894730,SASSIE,PSC,SASSIE,North
2022-09-25T20:50:03Z,2022,20,50,268.8681,268.8681,73.01755,-150.48556,-999.0,-999.0,-999.0,no,yes,no,300534062894730,SASSIE,PSC,SASSIE,North
2022-09-25T21:00:00Z,2022,21,0,268.875,268.875,73.01832,-150.48224,-999.0,-999.0,-999.0,no,yes,no,300534062894730,SASSIE,PSC,SASSIE,North
2022-09-25T21:10:56Z,2022,21,11,268.8826,268.8826,73.01904,-150.47864,-999.0,-999.0,-999.0,no,yes,no,300534062894730,SASSIE,PSC,SASSIE,North
2022-09-25T21:20:00Z,2022,21,20,268.8889,268.8889,73.0196,-150.47559,-999.0,-999.0,-999.0,no,yes,no,300534062894730,SASSIE,PSC,SASSIE,North
2022-09-25T21:29:57Z,2022,21,30,268.8958,268.8958,73.02017,-150.47216,-999.0,-999.0,-999.0,no,yes,no,300534062894730,SASSIE,PSC,SASSIE,North
2022-09-25T21:40:01Z,2022,21,40,268.9028,268.9028,73.0207,-150.4688,-999.0,-999.0,-999.0,no,yes,no,300534062894730,SASSIE,PSC,SASSIE,North
2022-09-25T21:49:58Z,2022,21,50,268.9097,268.9097,73.02116,-150.46528,-999.0,-999.0,-999.0,no,yes,no,300534062894730,SASSIE,PSC,SASSIE,North
2022-09-25T22:00:02Z,2022,22,0,268.9167,268.9167,73.02158,-150.46168,-999.0,-999.0,-999.0,no,yes,no,300534062894730,SASSIE,PSC,SASSIE,North
2022-09-25T22:09:59Z,2022,22,10,268.9236,268.9236,73.02196,-150.45806,-999.0,-999.0,-999.0,no,yes,no,300534062894730,SASSIE,PSC,SASSIE,North
2022-09-25T22:20:03Z,2022,22,20,268.9306,268.9306,73.02228,-150.45441,-999.0,-999.0,-999.0,no,yes,no,300534062894730,SASSIE,PSC,SASSIE,North
2022-09-25T22:30:00Z,2022,22,30,268.9375,268.9375,73.02254,-150.45082,-999.0,-999.0,-999.0,no,yes,no,300534062894730,SASSIE,PSC,SASSIE,North
2022-09-25T22:39:56Z,2022,22,40,268.9444,268.9444,73.0227,-150.44731,-999.0,-999.0,-999.0,no,yes,no,300534062894730,SASSIE,PSC,SASSIE,North
2022-09-25T22:50:00Z,2022,22,50,268.9514,268.9514,73.02281,-150.44372,-999.0,-999.0,-999.0,no,yes,no,300534062894730,SASSIE,PSC,SASSIE,North
2022-09-25T22:59:57Z,2022,23,0,268.9583,268.9583,73.02285,-150.44013,-999.0,-999.0,-999.0,no,yes,no,300534062894730,SASSIE,PSC,SASSIE,North
2022-09-25T23:10:01Z,2022,23,10,268.9653,268.9653,73.02282,-150.43669,-999.0,-999.0,-999.0,no,yes,no,300534062894730,SASSIE,PSC,SASSIE,North
2022-09-25T23:19:58Z,2022,23,20,268.9722,268.9722,73.02276,-150.43327,-999.0,-999.0,-999.0,no,yes,no,300534062894730,SASSIE,PSC,SASSIE,North
2022-09-25T23:30:02Z,2022,23,30,268.9792,268.9792,73.02266,-150.42991,-999.0,-999.0,-999.0,no,yes,no,300534062894730,SASSIE,PSC,SASSIE,North
2022-09-25T23:39:59Z,2022,23,40,268.9861,268.9861,73.02251,-150.42665,-999.0,-999.0,-999.0,no,yes,no,300534062894730,SASSIE,PSC,SASSIE,North
2022-09-25T23:50:55Z,2022,23,51,268.9937,268.9937,73.0224,-150.42299,-999.0,-999.0,-999.0,no,yes,no,300534062894730,SASSIE,PSC,SASSIE,North
2022-09-26T00:00:00Z,2022,0,0,269.0,269.0,73.02226,-150.41998,-999.0,-999.0,-999.0,no,yes,no,300534062894730,SASSIE,PSC,SASSIE,North
2022-09-26T00:09:56Z,2022,0,10,269.0069,269.0069,73.02208,-150.41672,-999.0,-999.0,-999.0,no,yes,no,300534062894730,SASSIE,PSC,SASSIE,North
2022-09-26T00:20:00Z,2022,0,20,269.0139,269.0139,73.02185,-150.41358,-999.0,-999.0,-999.0,no,yes,no,300534062894730,SASSIE,PSC,SASSIE,North
2022-09-26T00:29:57Z,2022,0,30,269.0208,269.0208,73.02158,-150.41051,-999.0,-999.0,-999.0,no,yes,no,300534062894730,SASSIE,PSC,SASSIE,North
2022-09-26T00:40:01Z,2022,0,40,269.0278,269.0278,73.02125,-150.40749,-999.0,-999.0,-999.0,no,yes,no,300534062894730,SASSIE,PSC,SASSIE,North
2022-09-26T00:49:58Z,2022,0,50,269.0347,269.0347,73.02092,-150.4045,-999.0,-999.0,-999.0,no,yes,no,300534062894730,SASSIE,PSC,SASSIE,North
2022-09-26T01:00:02Z,2022,1,0,269.0417,269.0417,73.02057,-150.40146,-999.0,-999.0,-999.0,no,yes,no,300534062894730,SASSIE,PSC,SASSIE,North
2022-09-26T01:09:59Z,2022,1,10,269.0486,269.0486,73.02019,-150.39859,-999.0,-999.0,-999.0,no,yes,no,300534062894730,SASSIE,PSC,SASSIE,North
2022-09-26T01:20:03Z,2022,1,20,269.0556,269.0556,73.01979,-150.39579,-999.0,-999.0,-999.0,no,yes,no,300534062894730,SASSIE,PSC,SASSIE,North
2022-09-26T01:30:00Z,2022,1,30,269.0625,269.0625,73.01934,-150.39301,-999.0,-999.0,-999.0,no,yes,no,300534062894730,SASSIE,PSC,SASSIE,North
2022-09-26T01:39:56Z,2022,1,40,269.0694,269.0694,73.01886,-150.39039,-999.0,-999.0,-999.0,no,yes,no,300534062894730,SASSIE,PSC,SASSIE,North
2022-09-26T01:50:00Z,2022,1,50,269.0764,269.0764,73.01839,-150.38784,-999.0,-999.0,-999.0,no,yes,no,300534062894730,SASSIE,PSC,SASSIE,North
2022-09-26T01:59:57Z,2022,2,0,269.0833,269.0833,73.01786,-150.3854,-999.0,-999.0,-999.0,no,yes,no,300534062894730,SASSIE,PSC,SASSIE,North
2022-09-26T02:10:01Z,2022,2,10,269.0903,269.0903,73.01745,-150.3835,-999.0,-999.0,-999.0,no,yes,no,300534062894730,SASSIE,PSC,SASSIE,North
2022-09-26T02:19:58Z,2022,2,20,269.0972,269.0972,73.017,-150.38179,-999.0,-999.0,-999.0,no,yes,no,300534062894730,SASSIE,PSC,SASSIE,North
2022-09-26T02:30:02Z,2022,2,30,269.1042,269.1042,73.01657,-150.38007,-999.0,-999.0,-999.0,no,yes,no,300534062894730,SASSIE,PSC,SASSIE,North
2022-09-26T02:39:59Z,2022,2,40,269.1111,269.1111,73.01612,-150.37837,-999.0,-999.0,-999.0,no,yes,no,300534062894730,SASSIE,PSC,SASSIE,North
2022-09-26T02:50:03Z,2022,2,50,269.1181,269.1181,73.0156,-150.37686,-999.0,-999.0,-999.0,no,yes,no,300534062894730,SASSIE,PSC,SASSIE,North
2022-09-26T03:00:00Z,2022,3,0,269.125,269.125,73.015,-150.37551,-999.0,-999.0,-999.0,no,yes,no,300534062894730,SASSIE,PSC,SASSIE,North
2022-09-26T03:09:56Z,2022,3,10,269.1319,269.1319,73.01436,-150.3745,-999.0,-999.0,-999.0,no,yes,no,300534062894730,SASSIE,PSC,SASSIE,North
2022-09-26T03:20:00Z,2022,3,20,269.1389,269.1389,73.01381,-150.37385,-999.0,-999.0,-999.0,no,yes,no,300534062894730,SASSIE,PSC,SASSIE,North
2022-09-26T03:29:57Z,2022,3,30,269.1458,269.1458,73.01332,-150.37336,-999.0,-999.0,-999.0,no,yes,no,300534062894730,SASSIE,PSC,SASSIE,North
2022-09-26T03:40:01Z,2022,3,40,269.1528,269.1528,73.01286,-150.37306,-999.0,-999.0,-999.0,no,yes,no,300534062894730,SASSIE,PSC,SASSIE,North
2022-09-26T03:49:58Z,2022,3,50,269.1597,269.1597,73.01241,-150.37284,-999.0,-999.0,-999.0,no,yes,no,300534062894730,SASSIE,PSC,SASSIE,North
2022-09-26T04:00:02Z,2022,4,0,269.1667,269.1667,73.01198,-150.3728,-999.0,-999.0,-999.0,no,yes,no,300534062894730,SASSIE,PSC,SASSIE,North
2022-09-26T04:09:59Z,2022,4,10,269.1736,269.1736,73.01162,-150.3728,-999.0,-999.0,-999.0,no,yes,no,300534062894730,SASSIE,PSC,SASSIE,North
2022-09-26T04:20:03Z,2022,4,20,269.1806,269.1806,73.01123,-150.37312,-999.0,-999.0,-999.0,no,yes,no,300534062894730,SASSIE,PSC,SASSIE,North
2022-09-26T04:30:00Z,2022,4,30,269.1875,269.1875,73.01091,-150.37357,-999.0,-999.0,-999.0,no,yes,no,300534062894730,SASSIE,PSC,SASSIE,North
2022-09-26T04:39:56Z,2022,4,40,269.1944,269.1944,73.01061,-150.37428,-999.0,-999.0,-999.0,no,yes,no,300534062894730,SASSIE,PSC,SASSIE,North
2022-09-26T04:50:00Z,2022,4,50,269.2014,269.2014,73.01037,-150.37499,-999.0,-999.0,-999.0,no,yes,no,300534062894730,SASSIE,PSC,SASSIE,North
2022-09-26T04:59:57Z,2022,5,0,269.2083,269.2083,73.01015,-150.37591,-999.0,-999.0,-999.0,no,yes,no,300534062894730,SASSIE,PSC,SASSIE,North
2022-09-26T05:10:01Z,2022,5,10,269.2153,269.2153,73.00996,-150.37688,-999.0,-999.0,-999.0,no,yes,no,300534062894730,SASSIE,PSC,SASSIE,North
2022-09-26T05:19:58Z,2022,5,20,269.2222,269.2222,73.00978,-150.37796,-999.0,-999.0,-999.0,no,yes,no,300534062894730,SASSIE,PSC,SASSIE,North
2022-09-26T05:30:02Z,2022,5,30,269.2292,269.2292,73.0097,-150.3791,-999.0,-999.0,-999.0,no,yes,no,300534062894730,SASSIE,PSC,SASSIE,North
2022-09-26T05:39:59Z,2022,5,40,269.2361,269.2361,73.00971,-150.38029,-999.0,-999.0,-999.0,no,yes,no,300534062894730,SASSIE,PSC,SASSIE,North
2022-09-26T05:50:03Z,2022,5,50,269.2431,269.2431,73.00979,-150.38149,-999.0,-999.0,-999.0,no,yes,no,300534062894730,SASSIE,PSC,SASSIE,North
2022-09-26T06:00:00Z,2022,6,0,269.25,269.25,73.00987,-150.38246,-999.0,-999.0,-999.0,no,yes,no,300534062894730,SASSIE,PSC,SASSIE,North
2022-09-26T06:09:56Z,2022,6,10,269.2569,269.2569,73.01001,-150.38337,-999.0,-999.0,-999.0,no,yes,no,300534062894730,SASSIE,PSC,SASSIE,North
2022-09-26T06:20:00Z,2022,6,20,269.2639,269.2639,73.01019,-150.38404,-999.0,-999.0,-999.0,no,yes,no,300534062894730,SASSIE,PSC,SASSIE,North
2022-09-26T06:29:57Z,2022,6,30,269.2708,269.2708,73.01044,-150.38467,-999.0,-999.0,-999.0,no,yes,no,300534062894730,SASSIE,PSC,SASSIE,North
2022-09-26T06:40:01Z,2022,6,40,269.2778,269.2778,73.01074,-150.38542,-999.0,-999.0,-999.0,no,yes,no,300534062894730,SASSIE,PSC,SASSIE,North
2022-09-26T06:49:58Z,2022,6,50,269.2847,269.2847,73.01108,-150.38598,-999.0,-999.0,-999.0,no,yes,no,300534062894730,SASSIE,PSC,SASSIE,North
2022-09-26T07:00:02Z,2022,7,0,269.2917,269.2917,73.01145,-150.38641,-999.0,-999.0,-999.0,no,yes,no,300534062894730,SASSIE,PSC,SASSIE,North
2022-09-26T07:09:59Z,2022,7,10,269.2986,269.2986,73.01186,-150.38667,-999.0,-999.0,-999.0,no,yes,no,300534062894730,SASSIE,PSC,SASSIE,North
2022-09-26T07:20:03Z,2022,7,20,269.3056,269.3056,73.01235,-150.38677,-999.0,-999.0,-999.0,no,yes,no,300534062894730,SASSIE,PSC,SASSIE,North
2022-09-26T07:30:00Z,2022,7,30,269.3125,269.3125,73.01283,-150.38654,-999.0,-999.0,-999.0,no,yes,no,300534062894730,SASSIE,PSC,SASSIE,North
2022-09-26T07:39:56Z,2022,7,40,269.3194,269.3194,73.01334,-150.38619,-999.0,-999.0,-999.0,no,yes,no,300534062894730,SASSIE,PSC,SASSIE,North
2022-09-26T07:50:00Z,2022,7,50,269.3264,269.3264,73.01393,-150.38561,-999.0,-999.0,-999.0,no,yes,no,300534062894730,SASSIE,PSC,SASSIE,North
2022-09-26T07:59:57Z,2022,8,0,269.3333,269.3333,73.0145,-150.38474,-999.0,-999.0,-999.0,no,yes,no,300534062894730,SASSIE,PSC,SASSIE,North
2022-09-26T08:10:01Z,2022,8,10,269.3403,269.3403,73.01498,-150.38356,-999.0,-999.0,-999.0,no,yes,no,300534062894730,SASSIE,PSC,SASSIE,North
2022-09-26T08:19:58Z,2022,8,20,269.3472,269.3472,73.01541,-150.38207,-999.0,-999.0,-999.0,no,yes,no,300534062894730,SASSIE,PSC,SASSIE,North
2022-09-26T08:30:02Z,2022,8,30,269.3542,269.3542,73.01576,-150.38044,-999.0,-999.0,-999.0,no,yes,no,300534062894730,SASSIE,PSC,SASSIE,North
2022-09-26T08:39:59Z,2022,8,40,269.3611,269.3611,73.01618,-150.37885,-999.0,-999.0,-999.0,no,yes,no,300534062894730,SASSIE,PSC,SASSIE,North
2022-09-26T08:50:03Z,2022,8,50,269.3681,269.3681,73.01658,-150.37709,-999.0,-999.0,-999.0,no,yes,no,300534062894730,SASSIE,PSC,SASSIE,North
2022-09-26T09:00:00Z,2022,9,0,269.375,269.375,73.01695,-150.37515,-999.0,-999.0,-999.0,no,yes,no,300534062894730,SASSIE,PSC,SASSIE,North
2022-09-26T09:09:56Z,2022,9,10,269.3819,269.3819,73.0173,-150.373,-999.0,-999.0,-999.0,no,yes,no,300534062894730,SASSIE,PSC,SASSIE,North
2022-09-26T09:20:00Z,2022,9,20,269.3889,269.3889,73.01767,-150.37082,-999.0,-999.0,-999.0,no,yes,no,300534062894730,SASSIE,PSC,SASSIE,North
2022-09-26T09:29:57Z,2022,9,30,269.3958,269.3958,73.01799,-150.36853,-999.0,-999.0,-999.0,no,yes,no,300534062894730,SASSIE,PSC,SASSIE,North
2022-09-26T09:40:01Z,2022,9,40,269.4028,269.4028,73.01831,-150.36612,-999.0,-999.0,-999.0,no,yes,no,300534062894730,SASSIE,PSC,SASSIE,North
2022-09-26T09:49:58Z,2022,9,50,269.4097,269.4097,73.01855,-150.36342,-999.0,-999.0,-999.0,no,yes,no,300534062894730,SASSIE,PSC,SASSIE,North
2022-09-26T10:00:02Z,2022,10,0,269.4167,269.4167,73.01866,-150.36058,-999.0,-999.0,-999.0,no,yes,no,300534062894730,SASSIE,PSC,SASSIE,North
2022-09-26T10:09:59Z,2022,10,10,269.4236,269.4236,73.01879,-150.35782,-999.0,-999.0,-999.0,no,yes,no,300534062894730,SASSIE,PSC,SASSIE,North
2022-09-26T10:20:03Z,2022,10,20,269.4306,269.4306,73.01887,-150.35504,-999.0,-999.0,-999.0,no,yes,no,300534062894730,SASSIE,PSC,SASSIE,North
2022-09-26T10:30:00Z,2022,10,30,269.4375,269.4375,73.01885,-150.35223,-999.0,-999.0,-999.0,no,yes,no,300534062894730,SASSIE,PSC,SASSIE,North
2022-09-26T10:39:56Z,2022,10,40,269.4444,269.4444,73.01882,-150.34924,-999.0,-999.0,-999.0,no,yes,no,300534062894730,SASSIE,PSC,SASSIE,North
2022-09-26T10:50:00Z,2022,10,50,269.4514,269.4514,73.01877,-150.34623,-999.0,-999.0,-999.0,no,yes,no,300534062894730,SASSIE,PSC,SASSIE,North
2022-09-26T10:59:57Z,2022,11,0,269.4583,269.4583,73.01865,-150.34331,-999.0,-999.0,-999.0,no,yes,no,300534062894730,SASSIE,PSC,SASSIE,North
2022-09-26T11:10:01Z,2022,11,10,269.4653,269.4653,73.01849,-150.34047,-999.0,-999.0,-999.0,no,yes,no,300534062894730,SASSIE,PSC,SASSIE,North
2022-09-26T11:19:58Z,2022,11,20,269.4722,269.4722,73.01832,-150.33773,-999.0,-999.0,-999.0,no,yes,no,300534062894730,SASSIE,PSC,SASSIE,North
2022-09-26T11:30:02Z,2022,11,30,269.4792,269.4792,73.01813,-150.3351,-999.0,-999.0,-999.0,no,yes,no,300534062894730,SASSIE,PSC,SASSIE,North
2022-09-26T11:39:59Z,2022,11,40,269.4861,269.4861,73.01794,-150.33241,-999.0,-999.0,-999.0,no,yes,no,300534062894730,SASSIE,PSC,SASSIE,North
2022-09-26T11:50:03Z,2022,11,50,269.4931,269.4931,73.01773,-150.32967,-999.0,-999.0,-999.0,no,yes,no,300534062894730,SASSIE,PSC,SASSIE,North
2022-09-26T12:00:00Z,2022,12,0,269.5,269.5,73.01753,-150.32688,-999.0,-999.0,-999.0,no,yes,no,300534062894730,SASSIE,PSC,SASSIE,North
2022-09-26T12:09:56Z,2022,12,10,269.5069,269.5069,73.01733,-150.32432,-999.0,-999.0,-999.0,no,yes,no,300534062894730,SASSIE,PSC,SASSIE,North
2022-09-26T12:20:00Z,2022,12,20,269.5139,269.5139,73.01709,-150.32154,-999.0,-999.0,-999.0,no,yes,no,300534062894730,SASSIE,PSC,SASSIE,North
2022-09-26T12:29:57Z,2022,12,30,269.5208,269.5208,73.01685,-150.31883,-999.0,-999.0,-999.0,no,yes,no,300534062894730,SASSIE,PSC,SASSIE,North
2022-09-26T12:40:01Z,2022,12,40,269.5278,269.5278,73.01652,-150.31605,-999.0,-999.0,-999.0,no,yes,no,300534062894730,SASSIE,PSC,SASSIE,North
2022-09-26T12:49:58Z,2022,12,50,269.5347,269.5347,73.01619,-150.31325,-999.0,-999.0,-999.0,no,yes,no,300534062894730,SASSIE,PSC,SASSIE,North
2022-09-26T13:00:02Z,2022,13,0,269.5417,269.5417,73.0158,-150.31051,-999.0,-999.0,-999.0,no,yes,no,300534062894730,SASSIE,PSC,SASSIE,North
2022-09-26T13:09:59Z,2022,13,10,269.5486,269.5486,73.01539,-150.30774,-999.0,-999.0,-999.0,no,yes,no,300534062894730,SASSIE,PSC,SASSIE,North
2022-09-26T13:20:03Z,2022,13,20,269.5556,269.5556,73.01494,-150.30501,-999.0,-999.0,-999.0,no,yes,no,300534062894730,SASSIE,PSC,SASSIE,North
2022-09-26T13:30:00Z,2022,13,30,269.5625,269.5625,73.01442,-150.30248,-999.0,-999.0,-999.0,no,yes,no,300534062894730,SASSIE,PSC,SASSIE,North
2022-09-26T13:39:56Z,2022,13,40,269.5694,269.5694,73.01383,-150.29991,-999.0,-999.0,-999.0,no,yes,no,300534062894730,SASSIE,PSC,SASSIE,North
2022-09-26T13:50:00Z,2022,13,50,269.5764,269.5764,73.01315,-150.29745,-999.0,-999.0,-999.0,no,yes,no,300534062894730,SASSIE,PSC,SASSIE,North
2022-09-26T13:59:57Z,2022,14,0,269.5833,269.5833,73.01243,-150.29507,-999.0,-999.0,-999.0,no,yes,no,300534062894730,SASSIE,PSC,SASSIE,North
2022-09-26T14:10:01Z,2022,14,10,269.5903,269.5903,73.01167,-150.29298,-999.0,-999.0,-999.0,no,yes,no,300534062894730,SASSIE,PSC,SASSIE,North
2022-09-26T14:19:58Z,2022,14,20,269.5972,269.5972,73.0109,-150.291,-999.0,-999.0,-999.0,no,yes,no,300534062894730,SASSIE,PSC,SASSIE,North
2022-09-26T14:30:02Z,2022,14,30,269.6042,269.6042,73.01013,-150.28923,-999.0,-999.0,-999.0,no,yes,no,300534062894730,SASSIE,PSC,SASSIE,North
2022-09-26T14:39:59Z,2022,14,40,269.6111,269.6111,73.00933,-150.28757,-999.0,-999.0,-999.0,no,yes,no,300534062894730,SASSIE,PSC,SASSIE,North
2022-09-26T14:50:03Z,2022,14,50,269.6181,269.6181,73.00851,-150.28605,-999.0,-999.0,-999.0,no,yes,no,300534062894730,SASSIE,PSC,SASSIE,North
2022-09-26T15:00:00Z,2022,15,0,269.625,269.625,73.0077,-150.28474,-999.0,-999.0,-999.0,no,yes,no,300534062894730,SASSIE,PSC,SASSIE,North
2022-09-26T15:09:56Z,2022,15,10,269.6319,269.6319,73.00689,-150.28371,-999.0,-999.0,-999.0,no,yes,no,300534062894730,SASSIE,PSC,SASSIE,North
2022-09-26T15:20:00Z,2022,15,20,269.6389,269.6389,73.00602,-150.283,-999.0,-999.0,-999.0,no,yes,no,300534062894730,SASSIE,PSC,SASSIE,North
2022-09-26T15:29:57Z,2022,15,30,269.6458,269.6458,73.0052,-150.28241,-999.0,-999.0,-999.0,no,yes,no,300534062894730,SASSIE,PSC,SASSIE,North
2022-09-26T15:40:01Z,2022,15,40,269.6528,269.6528,73.00433,-150.28207,-999.0,-999.0,-999.0,no,yes,no,300534062894730,SASSIE,PSC,SASSIE,North
2022-09-26T15:49:58Z,2022,15,50,269.6597,269.6597,73.00353,-150.28199,-999.0,-999.0,-999.0,no,yes,no,300534062894730,SASSIE,PSC,SASSIE,North
2022-09-26T16:00:02Z,2022,16,0,269.6667,269.6667,73.0027,-150.28198,-999.0,-999.0,-999.0,no,yes,no,300534062894730,SASSIE,PSC,SASSIE,North
2022-09-26T16:09:59Z,2022,16,10,269.6736,269.6736,73.00194,-150.28214,-999.0,-999.0,-999.0,no,yes,no,300534062894730,SASSIE,PSC,SASSIE,North
2022-09-26T16:20:03Z,2022,16,20,269.6806,269.6806,73.00122,-150.28253,-999.0,-999.0,-999.0,no,yes,no,300534062894730,SASSIE,PSC,SASSIE,North
2022-09-26T16:30:00Z,2022,16,30,269.6875,269.6875,73.00049,-150.28303,-999.0,-999.0,-999.0,no,yes,no,300534062894730,SASSIE,PSC,SASSIE,North
2022-09-26T16:39:56Z,2022,16,40,269.6944,269.6944,72.99976,-150.28375,-999.0,-999.0,-999.0,no,yes,no,300534062894730,SASSIE,PSC,SASSIE,North
2022-09-26T16:50:00Z,2022,16,50,269.7014,269.7014,72.99911,-150.2846,-999.0,-999.0,-999.0,no,yes,no,300534062894730,SASSIE,PSC,SASSIE,North
2022-09-26T16:59:57Z,2022,17,0,269.7083,269.7083,72.99853,-150.28572,-999.0,-999.0,-999.0,no,yes,no,300534062894730,SASSIE,PSC,SASSIE,North
2022-09-26T17:10:01Z,2022,17,10,269.7153,269.7153,72.998,-150.28705,-999.0,-999.0,-999.0,no,yes,no,300534062894730,SASSIE,PSC,SASSIE,North
2022-09-26T17:19:58Z,2022,17,20,269.7222,269.7222,72.99754,-150.28816,-999.0,-999.0,-999.0,no,yes,no,300534062894730,SASSIE,PSC,SASSIE,North
2022-09-26T17:30:02Z,2022,17,30,269.7292,269.7292,72.99713,-150.28914,-999.0,-999.0,-999.0,no,yes,no,300534062894730,SASSIE,PSC,SASSIE,North
2022-09-26T17:39:59Z,2022,17,40,269.7361,269.7361,72.99678,-150.29021,-999.0,-999.0,-999.0,no,yes,no,300534062894730,SASSIE,PSC,SASSIE,North
2022-09-26T17:50:03Z,2022,17,50,269.7431,269.7431,72.9965,-150.29145,-999.0,-999.0,-999.0,no,yes,no,300534062894730,SASSIE,PSC,SASSIE,North
2022-09-26T18:00:00Z,2022,18,0,269.75,269.75,72.99624,-150.29273,-999.0,-999.0,-999.0,no,yes,no,300534062894730,SASSIE,PSC,SASSIE,North
2022-09-26T18:09:56Z,2022,18,10,269.7569,269.7569,72.99604,-150.29355,-999.0,-999.0,-999.0,no,yes,no,300534062894730,SASSIE,PSC,SASSIE,North
2022-09-26T18:20:00Z,2022,18,20,269.7639,269.7639,72.99584,-150.29433,-999.0,-999.0,-999.0,no,yes,no,300534062894730,SASSIE,PSC,SASSIE,North
2022-09-26T18:29:57Z,2022,18,30,269.7708,269.7708,72.99565,-150.29494,-999.0,-999.0,-999.0,no,yes,no,300534062894730,SASSIE,PSC,SASSIE,North
2022-09-26T18:40:01Z,2022,18,40,269.7778,269.7778,72.99552,-150.29543,-999.0,-999.0,-999.0,no,yes,no,300534062894730,SASSIE,PSC,SASSIE,North
2022-09-26T18:49:58Z,2022,18,50,269.7847,269.7847,72.99543,-150.29578,-999.0,-999.0,-999.0,no,yes,no,300534062894730,SASSIE,PSC,SASSIE,North
2022-09-26T19:00:02Z,2022,19,0,269.7917,269.7917,72.99535,-150.29602,-999.0,-999.0,-999.0,no,yes,no,300534062894730,SASSIE,PSC,SASSIE,North
2022-09-26T19:09:59Z,2022,19,10,269.7986,269.7986,72.99529,-150.29612,-999.0,-999.0,-999.0,no,yes,no,300534062894730,SASSIE,PSC,SASSIE,North
2022-09-26T19:20:03Z,2022,19,20,269.8056,269.8056,72.99528,-150.29613,-999.0,-999.0,-999.0,no,yes,no,300534062894730,SASSIE,PSC,SASSIE,North
2022-09-26T19:30:00Z,2022,19,30,269.8125,269.8125,72.99528,-150.29617,-999.0,-999.0,-999.0,no,yes,no,300534062894730,SASSIE,PSC,SASSIE,North
2022-09-26T19:39:56Z,2022,19,40,269.8194,269.8194,72.99531,-150.29594,-999.0,-999.0,-999.0,no,yes,no,300534062894730,SASSIE,PSC,SASSIE,North